SCP
-0 0 0 0 0 0 0 0 0 0 0 0 0 0 0 0 0 0 0 0 0 0 0 0 0 0 0 0 0 0 0 0
0 0 0 0 0 0 0 0 0 0 0 0 0 0 0 0 0 0 0 0 0 0 0 0 0 0 0 0 0 0 0 0
0 0 0 0 0 0 0 0 0 0 0 0 0 0 0 0 0 0 0 0 0 0 0 0 0 0 0 0 0 0 0 0
0 0 -0 -0 -0 0 0 0 0 0 0 0 0 0 0 0 0 0 0 0 0 0 0 0 0 0 0 0 0 0 0 0
-0 -0 -0 -0 -0 -0 0 0 0 0 0 0 0 0 0 0 0 0 0 1 1 0 0 0 0 0 0 0 0 0 0 0
-0 -0 -0 0 0 0 -0 -0 0 0 0 0 0 0 0 0 0 0 0 1 0 0 0 0 0 0 0 0 0 0 0 0
0 0 0 -0 0 0 0 0 0 0 0 0 0 0 0 0 0 0 0 0 0 0 0 0 0 0 0 0 0 0 0 -0
-0 -0 -0 0 0 0 0 0 0 0 0 0 0 0 0 0 0 0 0 0 0 0 0 0 0 0 0 0 0 0 -0 -0
0 -0 -0 -0 0 0 0 0 0 0 0 0 0 0 0 0 0 0 0 0 0 0 0 0 0 0 0 0 -0 -0 -0 -0
0 0 0 0 0 0 0 0 0 0 0 0 0 0 0 0 0 0 0 0 0 0 0 0 0 0 0 0 0 -0 0 0
0 0 0 0 0 0 0 -0 0 0 0 0 0 0 0 0 0 0 0 0 0 0 0 0 0 0 0 0 0 0 0 0
0 0 0 -0 0 0 0 0 0 0 0 0 0 0 0 0 0 0 0 0 0 0 0 0 0 0 0 0 0 -0 0 0
0 0 0 0 0 0 0 0 0 0 0 0 0 0 0 0 0 0 0 0 0 0 0 0 0 0 0 0 0 0 0 0
0 0 0 0 0 0 -0 -0 0 0 0 0 0 0 0 0 0 0 0 0 0 0 0 0 0 0 0 0 0 0 0 0
0 0 0 0 0 0 -0 -0 -0 0 0 0 0 0 0 0 0 0 0 0 0 0 0 0 0 0 0 0 0 0 0 0
0 0 0 0 0 0 0 0 -0 -0 0 0 0 0 0 0 0 0 0 0 0 0 0 0 0 0 0 0 0 0 0 0
0 0 0 0 0 0 0 0 0 0 -0 0 0 0 -0 0 0 0 0 0 0 0 0 0 0 0 0 0 0 0 0 0
0 0 0 0 0 0 0 0 0 0 0 0 0 -0 -0 -0 0 0 0 0 0 0 0 0 0 0 0 0 0 0 -0 -0
0 0 0 0 0 0 0 0 0 0 0 0 0 0 0 -0 -0 -0 0 0 0 0 0 0 0 0 0 0 0 -0 -0 0
0 0 0 0 0 0 0 0 0 0 0 0 0 0 0 0 0 0 0 -0 0 0 0 0 0 0 0 0 0 0 0 0
Wind_Speed_500mb
36 37 40 42 41 24 24 8 28 50 62 62 62 64 58 49 42 35 35 35 33 32 30 32 30 27 24 20 18 11 8 8
49 44 39 38 37 30 17 11 3 22 40 47 50 61 62 57 50 45 41 39 36 40 39 34 31 28 24 21 20 17 16 16
63 55 43 38 34 29 21 18 19 20 22 23 42 54 57 59 57 50 45 43 40 40 42 42 36 30 24 23 22 21 21 24
67 65 54 42 37 34 36 26 19 22 18 21 28 41 63 63 62 59 56 52 48 48 43 43 40 36 26 21 21 22 25 31
63 63 60 56 46 39 42 43 41 37 36 30 29 32 44 61 71 66 65 64 58 55 53 51 49 45 40 32 30 31 35 40
72 71 71 70 69 62 57 54 53 55 52 52 49 43 40 41 51 63 70 71 69 63 59 55 50 48 44 41 41 43 50 52
89 84 86 89 85 78 79 75 65 61 62 58 56 58 52 45 44 55 58 64 66 66 62 59 55 51 49 48 51 57 62 61
76 81 88 89 99 93 91 94 83 80 70 65 60 59 64 66 62 58 60 60 61 63 64 63 59 57 57 56 59 62 61 64
99 96 97 100 91 86 92 94 95 88 76 71 67 65 68 74 79 75 70 67 61 66 66 68 68 68 65 65 64 63 66 58
92 94 98 95 89 86 99 99 95 91 82 79 77 75 71 63 71 83 77 70 76 74 74 77 73 78 76 72 69 72 69 63
88 85 88 87 78 75 90 106 90 83 85 90 85 80 75 68 68 67 69 67 65 63 61 61 58 55 76 71 67 65 65 62
88 82 78 80 77 74 78 69 75 84 83 79 73 74 72 68 66 66 68 69 73 74 69 62 56 52 69 70 68 67 64 60
82 78 78 78 75 75 77 72 59 74 78 75 71 69 69 65 62 64 69 74 75 71 68 62 57 54 50 56 59 56 44 50
74 74 69 71 57 58 55 63 61 59 66 66 73 72 71 69 66 57 53 59 63 64 62 55 50 54 49 51 47 47 49 53
68 66 57 56 59 49 37 12 38 44 54 55 55 53 52 55 58 57 65 61 57 57 62 54 56 52 51 51 48 43 40 45
60 47 51 44 48 41 27 15 17 29 38 43 48 53 60 51 57 58 50 48 51 56 60 60 59 55 51 51 48 45 47 53
51 44 48 39 37 38 25 14 19 27 36 33 43 45 49 52 43 43 49 52 49 46 44 54 56 52 49 51 53 57 50 52
60 58 56 42 32 28 23 22 29 26 24 38 35 33 39 45 42 38 37 36 36 35 37 37 45 53 59 63 62 65 71 52
68 65 57 46 28 15 17 20 28 31 31 36 37 37 37 34 34 33 33 32 31 34 38 37 42 48 53 57 62 75 71 66
92 88 83 65 27 11 24 23 19 20 28 28 31 33 33 32 27 28 29 29 29 28 28 32 32 36 42 52 60 67 69 66
Wind_Direction_500mb
329 337 342 346 345 341 350 325 219 196 195 195 192 190 185 183 182 181 186 190 200 199 195 192 192 194 194 196 188 198 228 267
325 330 330 331 337 334 300 297 245 224 232 227 217 204 198 196 195 194 196 201 209 211 208 205 203 204 208 215 221 235 253 275
318 320 322 323 320 314 311 279 255 237 228 240 239 227 216 212 209 210 212 212 213 208 213 212 213 213 217 226 235 248 262 278
309 309 310 313 307 302 289 292 283 276 241 238 245 234 229 231 225 218 219 220 217 213 209 212 212 212 217 225 233 250 267 280
299 299 297 299 297 287 288 286 275 266 255 250 243 242 236 230 228 226 221 221 221 215 211 214 215 218 228 234 245 265 279 288
298 295 291 290 290 282 280 278 279 275 262 255 245 248 236 228 227 225 223 216 215 216 214 217 222 228 235 246 260 275 285 291
289 287 283 283 282 281 281 278 273 264 257 253 248 249 243 226 220 219 214 213 213 216 222 228 233 241 248 257 267 278 284 293
282 294 285 276 273 277 273 269 264 258 253 248 245 243 241 233 235 227 214 213 217 219 226 232 241 250 257 263 270 277 287 293
282 286 282 278 273 270 265 262 257 254 252 245 241 239 239 238 237 241 235 224 227 230 234 243 251 256 261 265 273 281 286 287
287 284 284 281 274 269 264 257 256 254 247 240 239 237 235 236 238 240 240 237 236 238 243 247 252 256 260 266 272 278 283 280
296 289 287 287 285 271 261 259 255 249 244 238 235 237 234 231 230 236 237 235 233 235 238 241 242 249 259 266 273 276 276 266
309 303 294 288 291 285 275 270 256 247 238 234 230 227 225 225 226 227 227 228 230 234 236 236 239 243 258 264 271 275 272 258
318 311 308 303 304 290 281 273 258 238 235 229 224 219 217 220 223 226 226 227 228 231 232 232 235 241 246 261 268 268 261 250
328 325 327 322 320 314 297 255 241 232 221 220 222 225 221 218 217 217 215 216 224 225 219 221 237 244 246 257 249 245 234 236
333 335 344 341 348 352 15 181 212 214 208 204 200 192 197 206 210 214 219 220 222 228 237 238 234 239 245 233 221 229 224 231
343 349 350 359 358 11 32 85 167 185 192 195 205 212 209 199 192 196 196 202 210 222 222 225 239 235 226 219 222 224 226 226
354 1 5 14 15 17 31 86 137 160 171 160 177 189 194 203 214 218 217 221 222 224 226 232 226 219 220 219 227 228 226 228
13 9 3 13 23 31 44 69 127 118 157 173 179 182 186 194 199 200 202 200 204 207 208 216 219 221 222 223 227 223 226 231
23 24 19 17 15 66 95 87 116 131 143 165 170 181 189 197 199 199 205 205 200 206 213 216 217 222 226 227 225 225 229 234
28 37 37 41 46 78 104 131 140 139 146 164 163 176 183 190 197 199 203 207 210 215 224 219 223 223 228 229 226 226 228 234
Wind_Speed_850mb
36 37 40 42 41 24 24 8 28 50 62 62 62 64 58 49 42 35 35 35 33 32 30 32 30 27 24 20 18 11 8 8
49 44 39 38 37 30 17 11 3 22 40 47 50 61 62 57 50 45 41 39 36 40 39 34 31 28 24 21 20 17 16 16
63 55 43 38 34 29 21 18 19 20 22 23 42 54 57 59 57 50 45 43 40 40 42 42 36 30 24 23 22 21 21 24
67 65 54 42 37 34 36 26 19 22 18 21 28 41 63 63 62 59 56 52 48 48 43 43 40 36 26 21 21 22 25 31
63 63 60 56 46 39 42 43 41 37 36 30 29 32 44 61 71 66 65 64 58 55 53 51 49 45 40 32 30 31 35 40
72 71 71 70 69 62 57 54 53 55 52 52 49 43 40 41 51 63 70 71 69 63 59 55 50 48 44 41 41 43 50 52
89 84 86 89 85 78 79 75 65 61 62 58 56 58 52 45 44 55 58 64 66 66 62 59 55 51 49 48 51 57 62 61
76 81 88 89 99 93 91 94 83 80 70 65 60 59 64 66 62 58 60 60 61 63 64 63 59 57 57 56 59 62 61 64
99 96 97 100 91 86 92 94 95 88 76 71 67 65 68 74 79 75 70 67 61 66 66 68 68 68 65 65 64 63 66 58
92 94 98 95 89 86 99 99 95 91 82 79 77 75 71 63 71 83 77 70 76 74 74 77 73 78 76 72 69 72 69 63
88 85 88 87 78 75 90 106 90 83 85 90 85 80 75 68 68 67 69 67 65 63 61 61 58 55 76 71 67 65 65 62
88 82 78 80 77 74 78 69 75 84 83 79 73 74 72 68 66 66 68 69 73 74 69 62 56 52 69 70 68 67 64 60
82 78 78 78 75 75 77 72 59 74 78 75 71 69 69 65 62 64 69 74 75 71 68 62 57 54 50 56 59 56 44 50
74 74 69 71 57 58 55 63 61 59 66 66 73 72 71 69 66 57 53 59 63 64 62 55 50 54 49 51 47 47 49 53
68 66 57 56 59 49 37 12 38 44 54 55 55 53 52 55 58 57 65 61 57 57 62 54 56 52 51 51 48 43 40 45
60 47 51 44 48 41 27 15 17 29 38 43 48 53 60 51 57 58 50 48 51 56 60 60 59 55 51 51 48 45 47 53
51 44 48 39 37 38 25 14 19 27 36 33 43 45 49 52 43 43 49 52 49 46 44 54 56 52 49 51 53 57 50 52
60 58 56 42 32 28 23 22 29 26 24 38 35 33 39 45 42 38 37 36 36 35 37 37 45 53 59 63 62 65 71 52
68 65 57 46 28 15 17 20 28 31 31 36 37 37 37 34 34 33 33 32 31 34 38 37 42 48 53 57 62 75 71 66
92 88 83 65 27 11 24 23 19 20 28 28 31 33 33 32 27 28 29 29 29 28 28 32 32 36 42 52 60 67 69 66
Wind_Direction_850mb
329 337 342 346 345 341 350 325 219 196 195 195 192 190 185 183 182 181 186 190 200 199 195 192 192 194 194 196 188 198 228 267
325 330 330 331 337 334 300 297 245 224 232 227 217 204 198 196 195 194 196 201 209 211 208 205 203 204 208 215 221 235 253 275
318 320 322 323 320 314 311 279 255 237 228 240 239 227 216 212 209 210 212 212 213 208 213 212 213 213 217 226 235 248 262 278
309 309 310 313 307 302 289 292 283 276 241 238 245 234 229 231 225 218 219 220 217 213 209 212 212 212 217 225 233 250 267 280
299 299 297 299 297 287 288 286 275 266 255 250 243 242 236 230 228 226 221 221 221 215 211 214 215 218 228 234 245 265 279 288
298 295 291 290 290 282 280 278 279 275 262 255 245 248 236 228 227 225 223 216 215 216 214 217 222 228 235 246 260 275 285 291
289 287 283 283 282 281 281 278 273 264 257 253 248 249 243 226 220 219 214 213 213 216 222 228 233 241 248 257 267 278 284 293
282 294 285 276 273 277 273 269 264 258 253 248 245 243 241 233 235 227 214 213 217 219 226 232 241 250 257 263 270 277 287 293
282 286 282 278 273 270 265 262 257 254 252 245 241 239 239 238 237 241 235 224 227 230 234 243 251 256 261 265 273 281 286 287
287 284 284 281 274 269 264 257 256 254 247 240 239 237 235 236 238 240 240 237 236 238 243 247 252 256 260 266 272 278 283 280
296 289 287 287 285 271 261 259 255 249 244 238 235 237 234 231 230 236 237 235 233 235 238 241 242 249 259 266 273 276 276 266
309 303 294 288 291 285 275 270 256 247 238 234 230 227 225 225 226 227 227 228 230 234 236 236 239 243 258 264 271 275 272 258
318 311 308 303 304 290 281 273 258 238 235 229 224 219 217 220 223 226 226 227 228 231 232 232 235 241 246 261 268 268 261 250
328 325 327 322 320 314 297 255 241 232 221 220 222 225 221 218 217 217 215 216 224 225 219 221 237 244 246 257 249 245 234 236
333 335 344 341 348 352 15 181 212 214 208 204 200 192 197 206 210 214 219 220 222 228 237 238 234 239 245 233 221 229 224 231
343 349 350 359 358 11 32 85 167 185 192 195 205 212 209 199 192 196 196 202 210 222 222 225 239 235 226 219 222 224 226 226
354 1 5 14 15 17 31 86 137 160 171 160 177 189 194 203 214 218 217 221 222 224 226 232 226 219 220 219 227 228 226 228
13 9 3 13 23 31 44 69 127 118 157 173 179 182 186 194 199 200 202 200 204 207 208 216 219 221 222 223 227 223 226 231
23 24 19 17 15 66 95 87 116 131 143 165 170 181 189 197 199 199 205 205 200 206 213 216 217 222 226 227 225 225 229 234
28 37 37 41 46 78 104 131 140 139 146 164 163 176 183 190 197 199 203 207 210 215 224 219 223 223 228 229 226 226 228 234